Weather History for Langdon, ND

Change the Weather History Date:

Tuesday, May 21, 2013

  Actual Average (KDVL) Record (KDVL)
Temperature  
Mean Temperature 48 °F -  
Max Temperature 55 °F 69 °F 94 °F (1964)
Min Temperature 41 °F 45 °F 27 °F (1963)
Degree Days  
Heating Degree Days 17    
Moisture  
Dew Point 45 °F    
Average Humidity 96    
Maximum Humidity 100    
Minimum Humidity 77    
Precipitation  
Precipitation 0.11 in - - ()
Sea Level Pressure  
Sea Level Pressure 29.88 in    
Wind  
Wind Speed 24 mph (NE)    
Max Wind Speed 33 mph    
Max Gust Speed 44 mph    
Visibility 8 miles    
Events Rain    
Averages and records for this station are not official NWS values.
T = Trace of Precipitation, MM = Missing Value Source: NWS Daily Summary

Daily Weather History Graph

Daily Weather History Graph

Search for Another Location

Airport:

Trip Planner

Search our weather history database for the weather conditions in past years. The results will help you decide how hot, cold, wet, or windy it might be!

Date:

Astronomy

May. 21, 2013 Rise Set
Actual Time 5:44 AM CDT 9:16 PM CDT
Civil Twilight 5:05 AM CDT 9:55 PM CDT
Nautical Twilight 4:13 AM CDT 10:48 PM CDT
Astronomical Twilight 3:02 AM CDT 12:00 AM CDT
Moon 5:14 PM CDT (5/21) 3:33 AM CDT (5/21)
Length of Visible Light 16h 50m
Length of Day
15h 31m
Waxing Gibbous, 84% of the Moon is Illuminated
May 21
Waxing Gibbous
May 24
Full
May 31
Last Quarter
Jun 8
New
Jun 16
First Quarter

Hourly Weather History & Observations

Time (CDT) Temp. Windchill Dew Point Humidity Pressure Visibility Wind Dir Wind Speed Gust Speed Precip Events Conditions
12:15 AM 44.6 °F 35.3 °F 44.6 °F 100% 29.79 in 4.0 mi NE 26.5 mph 38.0 mph N/A Rain Light Rain
12:35 AM 42.8 °F 32.1 °F 42.8 °F 100% 29.79 in 6.0 mi NE 31.1 mph 41.4 mph N/A   Overcast
12:55 AM 42.8 °F 32.1 °F 42.8 °F 100% 29.79 in 5.0 mi NE 31.1 mph 40.3 mph N/A Rain Light Rain
1:15 AM 41.0 °F 29.8 °F 41.0 °F 100% 29.79 in 4.0 mi NE 29.9 mph 41.4 mph 0.01 in Rain Light Rain
1:35 AM 41.0 °F 29.5 °F 41.0 °F 100% 29.79 in 3.0 mi NE 32.2 mph 39.1 mph 0.07 in   Overcast
1:55 AM 41.0 °F 30.0 °F 41.0 °F 100% 29.80 in 3.0 mi NE 28.8 mph 42.6 mph 0.10 in   Overcast
2:15 AM 41.0 °F 29.3 °F 41.0 °F 100% 29.80 in 10.0 mi NE 33.4 mph 42.6 mph N/A Rain Light Rain
2:35 AM 41.0 °F 30.2 °F 41.0 °F 100% 29.81 in 5.0 mi NE 27.6 mph 40.3 mph N/A Rain Light Rain
2:55 AM 41.0 °F 30.0 °F 41.0 °F 100% 29.81 in 9.0 mi NE 28.8 mph 36.8 mph 0.01 in Rain Light Rain
3:15 AM 41.0 °F 30.2 °F 41.0 °F 100% 29.81 in 7.0 mi NE 27.6 mph 35.7 mph N/A Rain Light Rain
3:35 AM 41.0 °F 30.7 °F 41.0 °F 100% 29.82 in 5.0 mi NE 25.3 mph 34.5 mph N/A Rain Light Rain
3:55 AM 41.0 °F 30.9 °F 41.0 °F 100% 29.82 in 5.0 mi NE 24.2 mph 34.5 mph N/A   Overcast
4:15 AM 41.0 °F 29.8 °F 41.0 °F 100% 29.82 in 6.0 mi NE 29.9 mph 38.0 mph N/A   Overcast
4:35 AM 41.0 °F 30.7 °F 41.0 °F 100% 29.82 in 5.0 mi NE 25.3 mph 35.7 mph N/A   Overcast
4:55 AM 41.0 °F 31.4 °F 41.0 °F 100% 29.82 in 5.0 mi NE 21.9 mph 35.7 mph N/A   Overcast
5:15 AM 41.0 °F 31.1 °F 41.0 °F 100% 29.83 in 7.0 mi NE 23.0 mph 32.2 mph N/A   Overcast
5:35 AM 41.0 °F 30.7 °F 41.0 °F 100% 29.83 in 5.0 mi NE 25.3 mph 32.2 mph N/A   Overcast
5:55 AM 41.0 °F 30.7 °F 41.0 °F 100% 29.84 in 4.0 mi NE 25.3 mph 34.5 mph N/A   Overcast
6:15 AM 41.0 °F 31.1 °F 41.0 °F 100% 29.83 in 2.5 mi NE 23.0 mph 34.5 mph N/A   Overcast
6:35 AM 41.0 °F 30.7 °F 41.0 °F 100% 29.84 in 2.5 mi NE 25.3 mph 33.4 mph N/A   Overcast
6:55 AM 41.0 °F 30.7 °F 41.0 °F 100% 29.84 in 2.0 mi NE 25.3 mph 33.4 mph N/A   Overcast
7:15 AM 41.0 °F 31.4 °F 41.0 °F 100% 29.84 in 2.5 mi NE 21.9 mph 32.2 mph N/A   Overcast
7:35 AM 41.0 °F 30.7 °F 41.0 °F 100% 29.85 in 2.0 mi NE 25.3 mph 32.2 mph N/A   Overcast
7:55 AM 41.0 °F 30.9 °F 41.0 °F 100% 29.84 in 3.0 mi NE 24.2 mph 31.1 mph N/A   Overcast
8:15 AM 41.0 °F 31.1 °F 41.0 °F 100% 29.84 in 10.0 mi NE 23.0 mph 35.7 mph N/A   Overcast
8:35 AM 41.0 °F 29.8 °F 41.0 °F 100% 29.84 in 10.0 mi NE 29.9 mph 35.7 mph N/A   Overcast
8:55 AM 42.8 °F 33.5 °F 42.8 °F 100% 29.84 in 10.0 mi NE 23.0 mph 35.7 mph N/A   Overcast
9:15 AM 42.8 °F 32.9 °F 42.8 °F 100% 29.84 in 10.0 mi NE 26.5 mph 38.0 mph N/A   Overcast
9:35 AM 44.6 °F 34.6 °F 42.8 °F 93% 29.85 in 10.0 mi ENE 31.1 mph 38.0 mph N/A   Overcast
9:55 AM 42.8 °F 33.3 °F 42.8 °F 100% 29.86 in 10.0 mi NE 24.2 mph 35.7 mph N/A   Overcast
10:15 AM 44.6 °F 35.9 °F 42.8 °F 93% 29.86 in 10.0 mi NE 23.0 mph 33.4 mph N/A   Overcast
10:35 AM 44.6 °F 35.1 °F 42.8 °F 93% 29.86 in 10.0 mi NE 27.6 mph 34.5 mph N/A   Overcast
10:55 AM 46.4 °F 38.3 °F 42.8 °F 87% 29.87 in 10.0 mi NE 23.0 mph 33.4 mph N/A   Overcast
11:15 AM 46.4 °F 37.5 °F 44.6 °F 93% 29.87 in 10.0 mi NE 27.6 mph 33.4 mph N/A   Overcast
11:35 AM 46.4 °F 37.4 °F 44.6 °F 93% 29.87 in 10.0 mi NE 28.8 mph 32.2 mph N/A   Overcast
11:55 AM 44.6 °F 35.3 °F 44.6 °F 100% 29.88 in 10.0 mi ENE 26.5 mph 38.0 mph N/A   Overcast
12:15 PM 44.6 °F 35.3 °F 44.6 °F 100% 29.88 in 10.0 mi ENE 26.5 mph 38.0 mph N/A   Overcast
12:35 PM 46.4 °F 38.1 °F 46.4 °F 100% 29.88 in 9.0 mi NE 24.2 mph 32.2 mph N/A   Overcast
12:55 PM 46.4 °F 38.1 °F 46.4 °F 100% 29.89 in 10.0 mi ENE 24.2 mph 33.4 mph N/A   Overcast
1:15 PM 46.4 °F 38.3 °F 46.4 °F 100% 29.89 in 10.0 mi NE 23.0 mph 31.1 mph N/A   Overcast
1:35 PM 48.2 °F - 48.2 °F 100% 29.89 in 10.0 mi NE 21.9 mph 31.1 mph N/A   Overcast
1:55 PM 48.2 °F - 46.4 °F 93% 29.88 in 10.0 mi NE 21.9 mph 26.5 mph N/A   Overcast
2:15 PM 48.2 °F - 48.2 °F 100% 29.89 in 10.0 mi NE 18.4 mph 25.3 mph N/A Rain Light Rain
2:35 PM 50.0 °F - 48.2 °F 94% 29.88 in 10.0 mi NE 18.4 mph 26.5 mph N/A   Overcast
2:55 PM 51.8 °F - 48.2 °F 88% 29.89 in 10.0 mi NE 16.1 mph 25.3 mph N/A   Mostly Cloudy
3:15 PM 51.8 °F - 50.0 °F 94% 29.89 in 10.0 mi NE 15.0 mph 23.0 mph N/A   Overcast
3:35 PM 53.6 °F - 50.0 °F 88% 29.89 in 10.0 mi NE 15.0 mph 18.4 mph N/A   Overcast
3:55 PM 53.6 °F - 50.0 °F 88% 29.90 in 10.0 mi NE 18.4 mph 29.9 mph N/A   Overcast
4:15 PM 55.4 °F - 48.2 °F 77% 29.90 in 10.0 mi ENE 27.6 mph 39.1 mph N/A   Overcast
4:35 PM 53.6 °F - 50.0 °F 88% 29.92 in 10.0 mi ENE 31.1 mph 43.7 mph N/A   Overcast
4:55 PM 51.8 °F - 51.8 °F 100% 29.93 in 7.0 mi ENE 25.3 mph 39.1 mph N/A   Overcast
5:15 PM 53.6 °F - 50.0 °F 88% 29.93 in 10.0 mi ENE 21.9 mph 31.1 mph N/A   Overcast
5:35 PM 55.4 °F - 48.2 °F 77% 29.92 in 10.0 mi ENE 20.7 mph 31.1 mph N/A   Overcast
5:55 PM 53.6 °F - 48.2 °F 82% 29.92 in 10.0 mi East 15.0 mph 21.9 mph N/A   Overcast
6:15 PM 53.6 °F - 48.2 °F 82% 29.92 in 10.0 mi East 13.8 mph - N/A   Overcast
6:35 PM 53.6 °F - 48.2 °F 82% 29.92 in 10.0 mi East 11.5 mph - N/A   Overcast
6:55 PM 53.6 °F - 50.0 °F 88% 29.92 in 10.0 mi East 10.4 mph - N/A   Overcast
7:15 PM 53.6 °F - 50.0 °F 88% 29.93 in 10.0 mi East 6.9 mph - N/A   Overcast
7:35 PM 53.6 °F - 50.0 °F 88% 29.94 in 10.0 mi ENE 6.9 mph - N/A   Overcast
7:55 PM 53.6 °F - 50.0 °F 88% 29.94 in 10.0 mi ENE 6.9 mph - N/A   Overcast
8:15 PM 53.6 °F - 50.0 °F 88% 29.94 in 10.0 mi NE 6.9 mph - N/A   Mostly Cloudy
8:35 PM 53.6 °F - 50.0 °F 88% 29.95 in 10.0 mi NNE 6.9 mph - N/A   Mostly Cloudy
8:55 PM 50.0 °F - 50.0 °F 100% 29.95 in 10.0 mi NE 4.6 mph - N/A   Partly Cloudy
9:15 PM 50.0 °F - 50.0 °F 100% 29.95 in 10.0 mi NE 4.6 mph - N/A   Clear
9:35 PM 50.0 °F - 50.0 °F 100% 29.96 in 10.0 mi ENE 4.6 mph - N/A   Clear
9:55 PM 48.2 °F - 48.2 °F 100% 29.97 in 10.0 mi East 4.6 mph - N/A   Partly Cloudy
10:15 PM 46.4 °F 44.3 °F 46.4 °F 100% 29.97 in 10.0 mi ESE 4.6 mph - N/A   Scattered Clouds
10:35 PM 46.4 °F - 46.4 °F 100% 29.97 in 10.0 mi Calm Calm - N/A   Partly Cloudy
10:55 PM 46.4 °F - 46.4 °F 100% 29.97 in 10.0 mi Calm Calm - N/A   Clear
11:35 PM 42.8 °F - 42.8 °F 100% 29.97 in 10.0 mi Calm Calm - N/A   Clear
11:55 PM 41.0 °F - 41.0 °F 100% 29.97 in 9.0 mi Calm Calm - N/A   Clear